Flag for Germany Weather past 2 weeks in Maintal, Hesse, Germany

Now
42 °F

Passing clouds.


Feels Like: 42 °F
Forecast: 34 / 51 °F
Wind: 2 mph from Southeast

Location: Frankfurt / M-Flughafen

Current Time: Mar 6, 2015 at 11:09:04 PM

Latest Report: Mar 6, 2015 at 9:00 PM


Visibility: 19 mi

Pressure: 30.60 "Hg

Humidity: 70%

Dew point: 33 °F

Location of MaintalLocation

Historic Weather in Maintal — Graph

°F

Maintal temperature yesterday

Maximum temperature yesterday: 47 °F (at 4:00 PM)
Minimum temperature yesterday: 38 °F (at 5:00 AM)
Average temperature yesterday: 42 °F

Past Weeks' High & Low Weather Summary

 TemperatureHumidityPressure
High52 °F (Feb 20, 5:00 PM)100% (Feb 23, 12:00 PM)30.68 "Hg (Feb 23, 12:00 PM)
Low29 °F (Feb 28, 7:00 AM)38% (Mar 2, 3:00 PM)29.47 "Hg (Feb 21, 6:00 AM)
Average40 °F78%30.01 "Hg
* Reported Feb 19 9:00 PM — Mar 6 9:00 PM, Maintal, Weather by CustomWeather, © 2015

Note: Actual official high and low records may vary slightly from our data, if they occured in-between our weather recording intervals... More about our weather records

Advertising

Maintal weather history for previous 24 hours

 ConditionsComfort  
Time TempWeatherWind HumidityBarometerVisibility
9:00 PM
Fri, Mar 6
42 °FPassing clouds.2 mph70%30.60 "Hg19 mi
8:00 PM43 °FOvercast.2 mph69%30.61 "Hg19 mi
7:00 PM44 °FOvercast.1 mph66%30.60 "Hg22 mi
6:00 PM47 °FOvercast.2 mph56%30.58 "Hg25 mi
5:00 PM48 °FOvercast.2 mph55%30.58 "Hg22 mi
3:00 PM47 °FOvercast.2 mph61%30.61 "Hg22 mi
2:00 PM47 °FOvercast.5 mph60%30.63 "Hg19 mi
1:00 PM47 °FPartly sunny.6 mph58%30.64 "Hg19 mi
12:00 PM46 °FScattered clouds.5 mph65%30.66 "Hg19 mi
11:00 AM44 °FScattered clouds.3 mph68%30.67 "Hg19 mi
10:00 AM40 °FScattered clouds.3 mph73%30.68 "Hg19 mi
9:00 AM37 °FPartly sunny.3 mph84%30.68 "Hg19 mi
8:00 AM34 °FScattered clouds.2 mph94%30.68 "Hg19 mi
7:00 AM34 °FPartly sunny.2 mph91%30.67 "Hg19 mi
6:00 AM32 °FOvercast.3 mph96%30.67 "Hg12 mi
5:00 AM31 °FPassing clouds.2 mph96%30.66 "Hg16 mi
4:00 AM30 °FOvercast.1 mph96%30.65 "Hg19 mi
3:00 AM31 °FPassing clouds.1 mph94%30.65 "Hg19 mi
2:00 AM33 °FPassing clouds.No wind90%30.67 "Hg19 mi
1:00 AM33 °FPassing clouds.No wind90%30.66 "Hg22 mi
12:00 AM34 °FPassing clouds.No wind88%30.66 "Hg22 mi
Weather by CustomWeather, © 2015

See weather overviewHow to use our weather pages